Regional Weather Roundup
Issued by NWS State College, PA

Home | Current Version | Previous Version | Text Only | Print | Product List | Glossary Off
Versions: 1 2 3 4 5 6 7 8 9 10 11 12 13 14 15 16 17 18 19 20 21 22 23 24 25 26 27 28 29 30 31 32 33 34 35 36 37 38 39 40 41 42 43 44 45 46 47 48 49 50

000
ASUS41 KCTP 260310
RWRCTP

REGIONAL WEATHER ROUNDUP
NATIONAL WEATHER SERVICE STATE COLLEGE PA
1100 PM EDT FRI JUL 25 2014

Note: "fair" indicates few or no clouds below 12,000 feet with no
significant weather and/or obstructions to visibility.

* = STATION THAT DOES NOT REPORT PRECIPITATION /E.G. RAIN...SNOW...ETC/
    THUNDER OR FOG.

PAZ002>004-007>009-013>016-020>023-029>032-260400-
WESTERN PENNSYLVANIA

CITY           SKY/WX    TMP DP  RH WIND       PRES   REMARKS
ERIE           CLOUDY    65  55  70 S5        30.00F
MEADVILLE      MOCLDY    62  56  80 NE3       30.03F
FRANKLIN*      MOCLDY    63  52  67 SW5       30.04F
NEW CASTLE       N/A     63  59  87 CALM      30.03F
BEAVER COUNTY  NOT AVBL
BUTLER*        CLOUDY    61  52  72 CALM      30.04S
PITTSBURGH INT CLOUDY    68  56  65 W3        30.03S
PITTSBURGH     MOCLDY    71  53  52 SW6       30.02F
INDIANA*       MOCLDY    61  55  82 CALM      30.07S
LATROBE        CLEAR     63  59  88 CALM      30.04S
WASHINGTON CO* CLOUDY    61  55  82 CALM      30.04S
$$

PAZ004>006-010>012-017>019-024>028-033>037-041-042-045-046-049>053-260400-
CENTRAL PENNSYLVANIA

CITY           SKY/WX    TMP DP  RH WIND       PRES   REMARKS
BRADFORD       MOCLDY    55  50  83 CALM      30.05S
DUBOIS         MOCLDY    63  51  65 CALM      30.03F
CLEARFIELD     MOCLDY    59  52  77 CALM      30.04S
JOHNSTOWN      PTCLDY    64  48  56 W3        30.06F
ALTOONA        PTCLDY    61  57  87 SE3       30.04S
STATE COLLEGE  MOCLDY    63  56  77 CALM      30.02S
WILLIAMSPORT   CLEAR     62  55  77 NW5       29.99S
SELINSGROVE    CLEAR     58  56  93 CALM      30.01S
FT INDIANTOWN  CLEAR     59  55  86 VRB1      30.01F
CAPITAL CITY   CLEAR     64  55  72 CALM      30.01S
HARRISBURG     PTCLDY    68  57  68 E3        30.00S
YORK           PTCLDY    63  56  78 CALM      30.01F
$$

PAZ038>040-043-044-047-048-054-055-060>062-067>071-260400-
EASTERN PENNSYLVANIA

CITY           SKY/WX    TMP DP  RH WIND       PRES   REMARKS
SCRANTON       CLEAR     67  50  54 CALM      30.02R
MOUNT POCONO   CLEAR     61  55  81 W5        30.06S
ALLENTOWN      CLEAR     65  55  70 CALM      30.01S
QUAKERTOWN*    CLEAR     63  59  88 CALM      30.02F
READING        CLEAR     69  55  60 CALM      30.00F
LANCASTER      PTCLDY    63  56  78 E5        30.00F
COATESVILLE    PTCLDY    64  55  72 CALM      30.03F
POTTSTOWN      CLEAR     64  55  72 CALM      30.02F
BLUE BELL      CLEAR     63  59  88 CALM      30.01S
DOYLESTOWN     CLEAR     65  58  78 CALM      30.01F
WILLOW GROVE   NOT AVBL
NORTH PHILA    CLEAR     74  54  49 VRB3      30.03S
PHILADELPHIA   PTCLDY    73  58  59 S6        30.01F
$$



USA.gov is the U.S. government's official web portal to all federal, state and local government web resources and services.